TimeEST,TemperatureF,Dew PointF,Humidity,Sea Level PressureIn,VisibilityMPH,Wind Direction,Wind SpeedMPH,Gust SpeedMPH,PrecipitationIn,Events,Conditions,WindDirDegrees,DateUTC
12:52 AM,30.9,26.1,82,29.91,10.0,East,5.8,-,N/A,,Partly Cloudy,100,2012-11-07 05:52:00
1:52 AM,30.9,26.1,82,29.90,10.0,Calm,Calm,-,N/A,,Partly Cloudy,0,2012-11-07 06:52:00
2:52 AM,30.0,25.0,82,29.89,9.0,Calm,Calm,-,N/A,,Clear,0,2012-11-07 07:52:00
3:52 AM,28.9,25.0,85,29.88,7.0,Calm,Calm,-,N/A,,Clear,0,2012-11-07 08:52:00
4:52 AM,28.0,24.1,85,29.89,5.0,Calm,Calm,-,N/A,,Mostly Cloudy,0,2012-11-07 09:52:00
5:52 AM,28.0,24.1,85,29.90,6.0,East,3.5,-,N/A,,Clear,100,2012-11-07 10:52:00
6:35 AM,28.4,24.8,86,29.85,6.0,Calm,Calm,-,N/A,,Mostly Cloudy,0,2012-11-07 11:35:00
6:52 AM,28.9,25.0,85,29.90,7.0,Calm,Calm,-,N/A,,Scattered Clouds,0,2012-11-07 11:52:00
7:52 AM,30.0,26.1,85,29.91,5.0,Calm,Calm,-,N/A,,Partly Cloudy,0,2012-11-07 12:52:00
8:52 AM,35.1,28.9,78,29.91,10.0,Calm,Calm,-,N/A,,Partly Cloudy,0,2012-11-07 13:52:00
9:52 AM,39.0,30.9,73,29.91,10.0,Calm,Calm,-,N/A,,Clear,0,2012-11-07 14:52:00
10:52 AM,43.0,33.1,68,29.90,10.0,WSW,6.9,-,N/A,,Mostly Cloudy,250,2012-11-07 15:52:00
11:52 AM,48.0,32.0,54,29.87,10.0,Calm,Calm,-,N/A,,Clear,0,2012-11-07 16:52:00
12:52 PM,50.0,28.9,44,29.84,10.0,Variable,3.5,-,N/A,,Scattered Clouds,0,2012-11-07 17:52:00
1:52 PM,50.0,28.0,43,29.84,10.0,Variable,6.9,-,N/A,,Mostly Cloudy,0,2012-11-07 18:52:00
2:52 PM,51.1,28.0,41,29.84,10.0,North,6.9,-,N/A,,Mostly Cloudy,360,2012-11-07 19:52:00
3:52 PM,51.1,26.1,38,29.86,10.0,North,9.2,-,N/A,,Scattered Clouds,350,2012-11-07 20:52:00
4:52 PM,48.0,26.1,42,29.88,10.0,NNW,5.8,-,N/A,,Mostly Cloudy,340,2012-11-07 21:52:00
5:52 PM,46.9,27.0,46,29.91,10.0,NNW,5.8,-,N/A,,Overcast,330,2012-11-07 22:52:00
6:52 PM,46.0,28.0,50,29.94,10.0,Variable,6.9,-,N/A,,Scattered Clouds,0,2012-11-07 23:52:00
7:52 PM,45.0,28.0,52,29.95,10.0,NNW,3.5,-,N/A,,Overcast,330,2012-11-08 00:52:00
8:52 PM,43.0,28.0,56,29.97,10.0,Variable,3.5,-,N/A,,Mostly Cloudy,0,2012-11-08 01:52:00
9:52 PM,42.1,28.0,58,29.97,10.0,Calm,Calm,-,N/A,,Scattered Clouds,0,2012-11-08 02:52:00
10:52 PM,39.9,28.9,65,29.98,10.0,Calm,Calm,-,N/A,,Overcast,0,2012-11-08 03:52:00
11:52 PM,37.9,28.0,68,29.98,10.0,West,5.8,-,N/A,,Clear,260,2012-11-08 04:52:00